Regional Weather Roundup
Issued by NWS Northern Indiana

Home | Current Version | Previous Version | Graphics & Text | Print | Product List | Glossary On
Versions: 1 2 3 4 5 6 7 8 9 10 11 12 13 14 15 16 17 18 19 20 21 22 23 24 25 26 27 28 29 30 31 32 33 34 35 36 37 38 39 40 41 42 43 44 45 46 47 48 49 50
000
ASUS43 KIWX 251100
RWRIWX

KIWX WEATHER ROUNDUP
NATIONAL WEATHER SERVICE NORTHERN INDIANA
700 AM EDT SAT OCT 25 2014

NOTE: "FAIR" INDICATES FEW OR NO CLOUDS BELOW 12,000 FEET WITH NO
SIGNIFICANT WEATHER AND/OR OBSTRUCTIONS TO VISIBILITY.

* THESE STATIONS ARE NOT UNDER NWS QUALITY CONTROL. THEY ALSO MAY NOT
  REPORT WEATHER SUCH AS PRECIPITATION OR FOG.

INZ001>027-251200-
NORTHERN INDIANA

CITY           SKY/WX    TMP DP  RH WIND       PRES   REMARKS
GARY*          PTCLDY    54  52  94 CALM      29.92S FOG
SOUTH BEND     CLOUDY    54  51  90 W7        29.92S
GOSHEN         CLOUDY    54  51  90 SW8       29.91R
ANGOLA*        CLOUDY    55  48  76 W7        29.90R
FORT WAYNE     CLOUDY    54  51  90 SW7       29.94R
PERU/GRISSOM   PTCLDY    51  51 100 SW5       29.94R

$$
INZ028>050-251200-
CENTRAL INDIANA

CITY           SKY/WX    TMP DP  RH WIND       PRES   REMARKS
LAFAYETTE      PTCLDY    53  51  93 W3        29.95R
KOKOMO*        PTCLDY    54  48  82 SW8       29.95R
MUNCIE*        CLOUDY    57  50  77 SW8       29.94S
INDIANAPOLIS   MOCLDY    52  49  89 SW6       29.95S

$$
MIZ043>046-050>051-056>058-064>065-071>073-077>080-251200-
SOUTHWEST LOWER MICHIGAN

CITY           SKY/WX    TMP DP  RH WIND       PRES   REMARKS
BATTLE CREEK   CLOUDY    55  49  80 SW12      29.88R
BENTON HARBOR  PTCLDY    54  53  97 SW9       29.89S FOG
COLDWATER*     CLOUDY    55  52  90 SW9       29.89R
HILLSDALE*     CLOUDY    53  52  96 SW6       29.88S
HOLLAND        PTCLDY    57  53  86 W12       29.86F
GRAND RAPIDS   MOCLDY    55  51  86 SW13      29.84F
KALAMAZOO      CLOUDY    57  51  80 W8        29.89S
STURGIS*       CLOUDY    54  52  94 SW8       29.89S
THREE RIVERS*  CLOUDY    55  51  89 SW5       29.90S

$$
OHZ001>008-015>018-024>025-251200-
NORTHWEST OHIO

CITY           SKY/WX    TMP DP  RH WIND       PRES   REMARKS
DEFIANCE       CLOUDY    53  50  89 SW6       29.91R FOG
FINDLAY        CLOUDY    53  49  86 S8        29.91F
TOLEDO EXPRESS CLOUDY    51  48  89 SW7       29.89S FOG
TOLEDO METCALF CLOUDY    51  47  86 SW8       29.90S FOG
LIMA           CLOUDY    53  48  83 S8        29.93F

$$
AND FOR LAKE MICHIGAN COASTAL AND OPEN LAKE BUOY OBSERVATIONS

STATION/POSITION TEMP    WIND        PRES    VSBY  WAVE
                 AIR SEA DIR/SP/G                  HT/PER
                 (F)     (DEG/KT/KT) (MB)    (MI)  (FT/S)
CALUMET HARBOR    56     290/  6/  8 1011.9R
MICHIGAN CITY     56     210/ 11/ 12   N/A
SAINT JOSEPH      57                 1012.5R
SOUTH LAKE BUOY   56 54  250/ 14/ 16 1011.3S         1/ 3

$$
&&



USA.gov is the U.S. government's official web portal to all federal, state and local government web resources and services.